Location: Newark
(5.5500°N, 0.2500°W)
Time: 08:59:37
(UTC+00:00)

Hubble Space Telescope - Pass Details

Date: 28 September 2019
Orbit: 536 x 540 km, 28.5° (Epoch: 13 October)

Event Time Altitude Azimuth Distance (km) Brightness Sun altitude
Rises 18:28:04 0° 263° (W) 2,670 6.6 -9.3°
Reaches altitude 10° 18:30:37 10° 277° (W) 1,778 5.0 -9.9°
Maximum altitude 18:34:03 25° 333° (NNW) 1,091 2.6 -10.7°
Drops below altitude 10° 18:37:28 10° 30° (NNE) 1,775 3.1 -11.6°
Enters shadow 18:38:37 - 37° (NE) 2,162 3.5 -11.9°
